Wind_Speed
6 6 7 8 8 9 9 9 10 10 11 11 12 13 14 14 15 16 17 17 17 18 18 18 18 18 17 17 16 16 17 18 18 18 18 18 20 22 24 27 29 30 29 27 25 23 21 20 18 17 16 16 16 15 13 12 11 11 13 15 16 17 16 15 15 14 14 15 15
7 7 8 8 9 10 10 10 10 10 10 10 10 11 11 12 13 14 15 15 16 17 17 18 18 18 17 17 16 16 16 16 17 17 17 16 17 19 21 24 26 27 26 25 23 21 20 18 15 14 14 14 13 12 11 11 10 9 11 14 15 16 15 15 14 14 14 14 15
9 9 9 9 10 10 11 11 11 10 10 9 9 9 10 10 10 11 12 13 14 15 16 17 17 17 17 17 17 16 16 15 15 15 15 15 15 17 20 22 24 24 24 23 22 20 18 15 13 12 13 13 12 12 13 13 12 11 12 15 16 16 15 15 14 13 13 14 14
10 10 10 11 11 12 12 12 12 11 11 10 10 10 10 10 10 11 11 12 13 14 15 16 16 17 17 17 17 17 16 15 14 13 13 13 15 17 19 20 22 22 22 21 20 18 16 13 13 13 13 13 12 13 14 15 15 15 15 16 17 17 15 14 13 13 12 12 13
11 11 11 12 12 13 13 13 13 12 12 12 11 11 11 11 12 12 12 13 13 13 14 15 16 16 16 16 16 16 16 15 14 13 12 13 15 16 18 19 20 20 20 19 17 15 14 13 13 14 13 13 13 15 16 16 16 16 16 17 17 16 15 14 13 12 12 11 12
12 12 12 13 13 13 14 14 14 13 13 13 12 12 12 12 13 13 13 14 14 14 14 14 15 15 15 15 15 16 16 15 14 13 13 13 15 16 18 18 19 18 17 16 15 14 14 14 14 14 14 14 14 15 15 14 14 14 15 15 15 14 13 12 12 12 11 11 10
13 13 13 13 14 14 14 14 14 14 14 14 13 13 13 13 13 14 14 14 14 14 14 14 14 14 14 14 15 15 16 15 14 13 13 14 16 17 18 18 18 17 16 16 15 15 15 15 15 14 14 14 14 14 13 12 12 12 13 13 12 11 11 11 11 11 10 10 9
13 13 13 14 14 14 14 14 14 14 14 14 14 13 13 13 13 13 14 14 14 14 14 13 13 13 13 14 14 15 15 15 14 14 14 15 16 17 18 18 18 17 17 17 16 16 16 16 15 14 14 13 12 11 10 10 10 11 11 12 11 10 10 9 10 10 10 9 9
12 12 12 12 13 13 13 13 13 14 14 14 13 13 12 12 12 12 13 13 13 13 12 12 11 11 12 13 13 14 14 14 14 14 15 16 17 18 18 18 18 18 18 17 17 16 16 15 13 12 11 10 10 10 10 10 10 11 11 11 10 9 9 9 9 9 9 9 8
11 11 11 11 11 11 11 11 11 12 12 12 11 11 10 10 11 11 11 11 11 11 10 10 9 9 10 11 11 12 13 13 13 14 15 16 17 17 17 17 17 17 17 16 15 14 13 12 10 10 10 10 11 11 11 11 11 11 10 10 9 8 8 8 8 7 7 6 6
10 10 9 8 8 8 9 9 9 9 9 8 8 7 7 8 9 9 9 9 8 7 7 7 7 7 8 9 10 11 12 13 13 14 15 15 16 16 15 15 15 15 14 13 12 10 10 10 12 13 13 12 12 12 12 11 10 10 9 8 8 7 6 6 6 6 6 6 7
8 7 7 6 6 6 6 7 7 6 5 5 5 5 5 6 6 6 7 6 5 4 4 4 5 6 7 8 9 10 11 11 12 12 13 13 13 13 12 12 12 12 12 11 11 11 12 13 14 15 14 13 12 12 11 10 9 9 9 8 7 7 7 6 6 6 7 7 8
5 5 4 4 4 4 5 5 4 4 3 3 3 3 3 4 4 4 4 4 4 3 3 3 4 5 6 7 8 8 9 9 10 10 11 11 12 12 13 14 14 14 14 14 13 13 13 13 14 14 14 13 12 12 11 10 9 9 9 8 8 9 9 9 8 8 8 9 9
3 3 3 3 3 4 4 4 4 3 3 2 2 2 2 3 3 3 3 3 3 3 4 4 5 5 6 7 8 8 9 10 10 11 13 14 15 15 16 16 16 16 16 15 14 13 13 13 12 12 12 12 12 12 11 11 10 10 10 10 11 11 11 10 10 10 10 10 10
3 3 3 3 3 4 4 4 4 3 3 4 3 2 2 3 3 3 3 3 3 3 3 4 5 6 7 8 9 10 11 12 13 14 15 16 16 16 15 15 15 14 14 14 13 13 13 12 12 12 12 12 13 13 12 12 11 11 12 12 13 12 12 11 10 10 10 10 10
4 4 3 3 4 4 4 4 4 4 4 4 4 3 3 4 4 4 4 5 5 4 5 6 7 9 10 11 11 12 13 14 14 15 15 15 15 14 13 13 13 13 13 13 13 13 13 12 12 12 12 12 13 13 12 12 12 12 12 12 12 11 11 11 11 11 11 10 10
4 4 4 4 4 4 4 5 5 5 5 5 4 5 5 5 6 6 7 7 8 8 9 9 11 12 13 13 13 13 13 13 13 14 14 14 14 13 13 13 12 12 12 12 13 13 13 13 12 11 11 12 12 12 12 11 11 12 11 11 11 12 12 12 12 12 11 11 11
4 4 4 4 4 5 5 6 7 7 6 6 6 6 7 7 8 8 9 9 10 11 12 12 13 13 13 13 12 12 12 12 13 13 14 14 14 14 14 13 13 13 12 12 13 13 13 12 11 11 11 11 12 12 12 11 12 12 13 13 14 14 14 14 13 13 12 12 12
4 4 4 5 5 5 6 6 6 7 7 7 7 7 7 8 9 9 10 10 10 11 11 12 11 11 11 11 11 12 12 13 14 14 14 14 14 14 14 14 14 13 13 13 12 12 12 11 11 11 11 12 12 12 12 13 14 15 15 15 15 15 15 14 14 13 13 13 13
3 3 4 4 5 5 5 5 5 6 6 6 6 6 6 7 7 8 9 9 9 9 9 9 9 9 10 10 12 13 14 15 15 16 16 15 15 15 15 15 14 14 13 13 12 12 12 12 12 12 12 12 13 13 14 15 15 16 16 16 15 15 15 15 14 14 14 13 13
3 3 3 4 4 4 4 4 4 5 5 5 5 4 5 5 5 6 7 7 7 7 7 8 8 9 10 11 13 14 15 15 15 16 16 15 15 15 14 14 14 13 13 12 12 12 13 12 12 12 13 13 13 14 14 15 15 15 15 15 15 15 15 15 14 14 14 14 13
4 3 3 3 3 3 2 3 4 5 5 5 5 4 4 4 5 5 6 6 7 7 8 9 9 10 11 12 13 14 14 14 14 14 14 13 13 12 11 10 11 11 11 11 11 12 12 12 12 12 12 13 13 14 14 14 15 15 15 15 15 15 15 14 14 14 14 13 12
4 4 4 4 3 3 3 4 5 6 7 6 6 5 5 6 6 6 6 6 7 8 9 9 9 9 9 9 10 11 11 12 12 12 12 11 12 11 10 10 10 11 11 11 11 11 11 11 11 10 11 12 13 14 14 14 14 15 15 15 15 15 14 14 14 14 13 13 12
5 5 5 5 5 5 6 7 8 8 8 8 7 7 7 7 7 7 7 7 7 8 8 8 8 8 7 7 7 7 8 10 11 12 12 13 13 12 12 11 11 12 13 12 11 11 10 10 10 11 12 13 14 15 15 14 14 14 14 14 15 15 14 14 13 13 12 12 12
6 6 6 6 7 7 8 9 9 10 10 9 8 8 8 8 8 8 7 7 7 7 8 9 9 8 8 8 8 8 8 9 11 13 13 14 13 12 12 11 12 13 13 13 12 11 11 11 11 12 13 14 14 15 15 14 14 14 13 14 14 14 14 13 12 12 11 11 11
7 7 7 8 8 9 9 9 10 10 10 10 9 9 8 8 7 7 7 7 8 8 9 10 10 10 10 10 10 10 10 11 12 13 14 14 13 13 13 13 14 14 13 12 11 11 11 11 11 12 12 13 14 15 15 14 14 13 13 13 13 13 12 12 11 11 11 10 10
8 8 9 9 9 9 9 9 9 9 9 9 9 9 8 8 7 7 7 8 8 9 10 10 11 11 11 11 11 12 12 13 13 14 15 15 15 16 16 16 15 14 13 12 11 11 11 11 11 11 12 13 13 14 14 14 13 13 13 12 12 11 11 11 11 11 11 11 11
8 9 9 9 9 9 9 9 9 9 9 9 9 9 9 9 9 9 9 9 10 10 11 11 11 11 11 12 13 14 15 16 17 17 17 17 17 17 16 16 15 13 12 12 11 11 11 10 11 11 11 12 12 13 13 13 13 13 12 12 12 12 11 11 12 12 12 11 10
9 9 9 9 9 8 8 9 10 10 10 10 10 10 10 10 10 11 11 11 11 11 12 12 12 12 14 16 17 18 18 19 19 18 18 17 17 17 16 15 14 13 12 12 12 11 11 11 11 11 11 11 11 12 12 13 12 13 13 13 12 12 12 12 12 11 10 9 8
9 10 10 10 10 9 10 10 10 10 10 10 11 11 11 11 11 11 11 12 12 12 12 13 14 16 17 19 19 19 18 18 18 17 17 17 17 16 15 14 13 13 12 12 12 12 12 11 11 11 11 11 11 12 12 12 12 12 13 13 13 12 12 11 10 9 8 7 6
10 10 10 10 11 11 11 11 11 10 11 11 11 11 11 11 11 10 11 11 12 13 13 15 17 18 19 19 19 18 17 17 17 17 17 17 17 16 15 14 14 13 13 12 12 11 11 11 11 11 12 12 12 12 12 12 12 12 12 12 12 11 10 9 8 7 7 6 5
11 11 11 11 11 11 11 11 11 10 10 10 10 10 11 11 10 10 10 11 13 15 16 18 19 19 18 18 18 17 17 17 17 16 16 16 16 16 15 14 13 13 12 12 11 11 10 10 11 12 13 13 12 12 12 11 11 11 11 11 10 9 8 7 7 6 6 5 4
11 11 11 11 11 11 11 11 11 11 11 11 11 11 12 12 12 12 13 14 15 16 18 18 18 18 18 18 17 17 17 16 16 16 15 15 15 15 14 14 13 12 12 11 11 11 10 10 11 13 13 13 12 11 11 10 10 10 10 9 9 8 7 6 6 6 5 5 4
10 10 10 11 11 11 11 12 12 12 12 12 12 13 13 14 15 15 15 16 16 16 17 18 18 18 18 17 17 16 16 15 15 15 15 15 14 15 15 14 13 12 11 11 11 10 10 10 12 12 12 11 11 10 9 9 8 8 8 7 7 6 6 6 6 5 5 5 4
9 10 11 11 11 12 12 12 12 12 12 12 13 13 14 15 16 16 16 16 16 16 17 17 18 18 17 16 15 15 15 15 15 14 14 14 14 15 15 14 13 11 11 11 10 10 10 11 12 12 11 11 10 9 9 7 7 6 6 6 6 6 6 6 6 6 5 5 4
10 11 12 12 12 12 12 12 11 12 12 13 13 14 15 15 15 15 15 15 16 16 17 17 17 17 16 15 14 14 13 14 14 13 13 13 14 14 14 14 12 11 10 10 10 11 11 12 12 11 11 10 9 8 7 6 6 6 6 6 6 6 6 6 5 5 5 5 4
10 11 12 12 12 12 12 12 12 13 13 14 14 15 15 15 15 15 15 16 16 17 17 16 16 16 16 15 14 13 13 12 12 12 12 12 13 13 13 12 12 11 10 10 10 10 11 11 11 10 9 8 7 6 5 5 5 6 6 6 6 6 6 5 5 4 4 4 5
10 10 11 12 12 12 12 12 13 14 15 15 15 15 15 15 15 15 15 15 16 16 16 16 16 15 15 14 13 13 12 11 10 11 11 11 11 11 11 11 11 10 9 9 9 9 9 9 9 8 7 6 5 5 5 5 5 6 6 6 6 6 6 5 5 4 4 5 5
9 9 10 11 12 12 12 13 14 14 15 15 15 15 15 15 15 15 14 14 14 15 15 16 15 15 13 12 12 11 10 10 9 9 10 10 9 9 10 10 10 9 8 8 7 8 8 8 8 7 6 5 4 4 4 5 5 6 6 6 6 6 6 6 5 5 5 5 5
8 9 10 11 12 12 13 13 14 14 15 15 15 15 15 15 15 14 14 14 13 14 15 15 15 13 11 10 10 9 9 9 9 9 9 8 8 8 8 10 10 9 8 7 7 7 8 8 7 6 6 5 4 4 4 5 6 7 7 7 7 6 6 6 5 5 5 4 4
8 9 9 10 11 12 13 13 14 14 15 15 15 15 14 14 14 14 14 14 14 14 14 14 13 11 9 8 8 7 7 8 8 8 8 8 7 7 8 9 10 10 9 8 8 8 7 7 7 7 6 5 5 5 5 5 6 7 7 7 6 6 6 6 6 5 5 4 3
Wind_Direction
269 269 269 270 272 273 274 274 273 272 271 269 267 265 264 263 263 263 262 261 261 261 261 261 261 261 260 260 260 260 259 258 256 255 255 256 256 255 253 252 250 248 247 246 245 244 243 241 239 238 238 239 241 244 247 251 254 258 259 253 243 235 233 236 241 244 245 245 247
270 269 268 269 270 272 273 273 273 272 272 270 269 267 266 265 265 265 264 263 262 261 260 259 259 259 260 259 260 261 262 261 259 257 256 256 256 255 252 250 248 246 244 243 241 240 239 239 235 230 226 225 227 234 244 253 256 255 252 247 240 235 235 239 243 245 245 244 245
273 271 269 269 270 271 272 272 271 270 269 269 268 268 268 269 269 269 269 267 265 263 260 259 258 258 259 260 261 262 264 264 262 259 258 257 255 252 249 247 244 242 240 239 237 237 236 234 227 219 214 216 223 242 258 264 266 261 251 245 241 239 239 241 242 243 242 241 242
274 273 272 271 271 272 273 273 272 270 269 268 268 269 270 271 273 274 275 273 270 267 264 262 259 258 258 259 261 263 264 264 263 261 259 257 253 249 245 242 239 237 236 236 235 235 233 227 219 213 213 220 235 251 262 267 267 262 254 247 243 243 244 244 244 241 239 238 240
275 273 272 271 271 272 273 274 275 274 272 271 272 272 273 275 277 279 280 279 277 274 270 267 263 260 258 257 258 260 261 262 262 260 256 253 248 243 238 235 233 233 232 232 231 229 225 219 213 211 216 229 248 258 259 258 258 256 251 245 242 241 243 242 239 236 234 234 236
279 276 273 271 271 272 274 275 276 276 276 275 277 278 279 281 283 284 284 284 282 280 277 273 269 265 261 258 257 258 258 259 258 256 252 247 241 235 230 228 227 227 227 226 224 221 218 215 214 217 225 236 245 248 246 244 246 246 241 233 230 229 228 226 224 224 225 226 228
284 281 278 276 274 274 275 276 276 277 278 279 281 282 284 286 287 287 287 287 287 286 284 281 276 270 264 259 255 254 254 254 254 250 245 239 233 228 224 223 222 222 221 221 220 219 219 220 221 226 231 235 235 235 236 239 239 234 226 216 211 207 206 208 213 216 218 221 225
286 284 282 280 279 277 277 277 277 278 279 281 283 285 287 287 288 288 289 290 292 293 292 288 282 274 265 256 251 248 247 246 245 242 236 230 225 222 220 219 219 218 219 221 222 224 225 227 229 231 232 230 224 222 224 228 222 215 208 202 198 196 198 203 211 217 220 223 226
286 285 284 283 280 278 277 276 276 277 279 281 283 285 286 286 287 288 290 292 295 297 297 293 285 273 260 250 243 239 238 237 235 232 227 222 219 217 217 218 218 219 222 224 226 228 230 231 229 226 220 213 203 199 200 200 195 193 195 198 200 203 208 213 217 220 220 219 214
289 287 285 283 279 276 274 273 273 274 276 277 278 280 281 282 283 285 288 291 294 296 294 288 278 264 248 237 231 227 225 224 222 221 219 217 215 215 217 218 220 221 223 224 224 224 224 220 208 195 186 183 181 180 179 179 180 184 191 198 205 208 211 214 213 209 203 196 180
292 289 285 280 275 272 270 267 266 266 267 266 267 269 273 276 278 279 282 285 287 287 282 274 259 241 227 220 216 213 212 212 213 213 213 212 213 214 215 217 217 216 213 209 204 200 193 182 171 163 160 162 165 166 166 168 175 182 188 192 195 190 185 185 182 173 161 153 147
290 286 280 271 268 266 262 252 247 244 243 244 250 259 266 270 270 270 271 271 268 264 257 246 227 215 210 206 202 200 200 201 203 205 204 203 203 202 199 196 192 186 178 170 165 161 159 156 154 151 150 151 153 155 157 162 172 178 178 174 171 159 146 138 140 137 131 126 121
282 275 262 251 249 244 234 222 213 207 206 215 233 249 256 254 252 255 255 250 241 227 211 202 197 194 190 188 186 186 185 185 187 186 183 178 174 168 163 158 154 151 146 143 143 145 147 147 148 147 145 144 145 146 150 155 162 165 163 157 151 141 131 124 123 121 115 110 104
258 234 216 207 206 205 198 188 177 170 171 176 191 209 218 218 220 228 233 226 213 198 189 186 183 180 176 171 169 169 169 167 165 160 155 151 149 147 144 142 141 139 137 136 138 140 143 144 146 146 146 143 141 141 144 147 149 149 147 143 137 131 124 119 116 112 107 103 100
189 174 170 171 172 177 177 166 158 157 156 154 158 172 184 179 180 188 193 189 184 184 184 179 167 160 158 157 156 155 154 151 148 146 143 141 141 141 140 139 138 138 137 137 138 139 141 142 144 146 147 144 141 140 141 143 142 141 138 134 130 125 120 116 112 109 108 108 110
155 150 152 157 162 165 163 155 153 152 150 147 147 152 156 158 163 167 165 162 165 170 168 160 152 149 149 149 149 148 147 146 144 142 141 140 140 141 141 140 139 139 139 140 140 140 140 139 142 145 148 147 145 143 142 142 140 137 134 131 127 123 118 115 113 113 113 115 116
136 135 138 145 150 151 151 149 148 146 145 147 148 150 150 152 159 160 157 152 153 153 151 148 149 149 148 147 148 148 147 145 144 142 140 139 139 139 139 139 138 138 140 140 139 138 138 139 141 145 148 148 146 143 140 138 135 131 128 124 120 117 115 114 114 114 115 115 113
123 127 134 139 141 142 145 147 146 144 145 148 150 152 151 149 150 150 150 148 147 145 144 145 148 149 149 147 148 148 146 143 140 137 135 134 134 135 134 134 133 134 136 136 135 134 134 136 139 142 144 142 138 134 131 128 123 120 117 115 114 114 114 114 113 113 112 110 106
117 126 135 137 137 138 140 143 144 143 142 143 145 147 147 144 143 141 140 141 142 142 141 141 144 146 146 142 140 138 135 131 129 127 126 126 127 126 125 125 125 126 128 128 128 128 129 130 132 134 134 131 126 122 119 116 114 114 114 114 115 114 113 112 110 109 107 104 100
128 134 137 136 133 132 135 138 139 137 135 133 134 135 135 134 136 134 132 131 134 136 138 136 135 135 134 132 128 124 122 120 119 117 117 117 116 115 114 113 114 115 117 117 118 119 120 120 121 122 121 119 116 114 112 112 113 114 115 115 114 112 110 108 106 105 102 99 96
155 153 146 138 132 130 132 136 139 134 128 121 119 118 118 120 123 121 119 118 120 124 125 123 123 123 123 124 121 118 116 116 115 112 111 109 107 105 105 106 106 106 108 109 111 111 111 110 109 110 110 110 109 109 110 111 113 114 114 112 110 108 106 106 104 102 99 96 93
168 169 160 146 138 138 144 150 147 138 127 119 113 110 110 113 111 109 109 111 114 114 113 112 113 115 118 119 118 116 115 114 112 110 108 106 103 102 102 104 106 107 107 106 106 105 104 102 101 102 104 106 106 106 106 108 110 110 109 108 107 106 105 104 103 101 98 95 93
174 175 167 160 158 161 161 155 147 137 128 122 117 117 116 114 112 112 115 117 118 115 112 110 111 112 113 114 114 115 115 113 109 107 105 104 103 103 105 107 110 108 104 100 98 99 101 102 103 104 104 105 105 104 103 104 105 106 107 107 107 106 105 104 102 101 100 99 98
181 175 166 160 156 153 150 145 137 131 125 121 120 119 119 117 115 117 119 120 119 117 115 114 112 111 111 113 114 117 118 115 112 109 108 108 109 110 111 112 108 102 95 90 89 91 96 101 105 106 106 105 104 103 102 101 102 103 105 106 107 107 106 105 103 103 104 105 103
180 170 161 155 150 146 142 137 130 125 122 121 122 122 120 118 117 117 118 118 117 117 117 117 115 115 116 117 118 120 120 119 117 114 112 111 111 110 108 104 98 93 89 87 87 88 90 93 97 101 104 106 106 105 103 101 101 102 103 104 106 108 109 109 106 104 105 105 103
176 167 159 154 149 143 138 134 130 126 124 124 124 124 122 121 120 120 119 118 117 118 119 119 119 120 121 121 121 121 120 119 118 115 112 107 104 99 95 91 88 87 87 88 89 89 89 91 93 97 102 106 107 107 106 104 103 102 102 102 103 105 107 108 104 100 97 93 90
171 165 161 156 150 144 140 137 133 131 129 129 130 130 129 128 128 127 125 122 122 122 121 121 121 122 122 122 121 120 118 117 115 110 105 100 96 93 92 91 90 89 90 92 94 94 94 94 95 97 100 103 106 107 107 106 104 101 99 97 96 96 97 97 94 91 88 84 79
169 167 163 157 152 147 145 142 141 139 138 139 139 138 137 137 135 132 128 126 125 124 122 120 120 121 122 121 119 117 114 111 107 103 100 98 97 97 97 96 95 95 95 97 98 98 98 97 97 97 99 100 101 102 103 103 101 98 94 91 88 87 86 85 85 85 85 83 79
170 168 164 158 154 152 152 151 149 147 145 144 144 143 140 137 132 128 125 124 123 122 120 119 120 121 120 117 114 111 107 105 103 102 102 103 103 102 100 98 97 98 99 99 100 100 99 99 97 95 95 96 95 95 95 95 94 92 89 86 83 80 79 79 80 82 83 84 83
172 168 164 160 157 156 156 156 153 150 147 145 144 141 136 131 126 123 121 121 120 120 120 121 121 118 114 111 108 106 105 105 106 107 107 106 104 101 98 97 98 98 98 98 99 100 100 99 96 92 90 90 89 88 87 87 87 86 85 82 80 78 77 78 79 81 82 82 81
173 170 166 161 158 156 155 155 152 149 146 143 140 136 131 126 122 120 120 122 122 123 124 123 119 114 110 109 108 108 109 111 111 110 109 106 104 101 99 97 97 97 97 96 97 99 99 97 93 88 85 84 83 82 81 81 81 81 81 80 79 79 79 79 80 79 77 76 72
175 173 169 163 157 155 154 153 150 147 145 143 141 136 130 125 122 123 124 126 127 126 124 121 116 113 112 112 113 113 114 113 112 111 109 107 105 104 102 99 96 95 94 94 95 95 95 92 87 83 81 80 78 76 74 74 75 77 79 80 81 81 80 79 78 76 73 70 66
176 174 169 162 156 153 151 149 147 146 146 145 142 136 131 128 128 128 129 128 127 125 121 118 115 115 115 116 116 116 115 114 113 112 110 109 107 105 102 98 95 92 91 92 92 92 91 86 81 79 78 77 76 73 70 69 70 74 79 83 85 85 83 81 79 78 75 72 69
173 170 164 158 152 149 147 147 146 146 144 140 137 134 132 132 131 129 128 126 125 124 122 121 120 120 120 120 119 118 116 115 114 113 111 109 107 104 100 95 93 91 90 90 90 91 90 85 80 78 79 81 81 79 76 75 76 79 85 89 91 90 89 86 84 82 80 78 77
169 163 157 152 148 146 144 145 145 143 139 133 130 130 131 130 128 126 126 126 127 126 124 124 124 124 123 122 121 119 118 116 115 114 112 111 107 102 97 93 91 89 88 88 89 89 89 86 83 83 84 87 89 89 88 88 91 94 98 99 98 96 94 92 90 89 87 85 83
165 159 153 149 146 144 144 144 143 139 134 129 127 127 127 126 126 127 130 132 130 127 124 124 124 124 123 122 120 119 118 117 116 115 114 112 108 102 97 94 91 88 85 85 86 86 86 86 87 88 89 91 94 97 101 105 109 110 110 107 105 102 99 97 95 94 92 90 87
165 158 152 148 146 145 145 144 141 137 133 130 129 128 128 128 129 132 136 136 132 128 127 126 125 124 123 122 120 119 119 119 118 117 115 112 109 105 101 97 92 87 83 82 82 83 84 86 89 90 92 94 99 106 115 121 122 119 116 112 108 105 102 99 96 94 93 90 87
165 160 154 149 147 147 146 145 142 138 135 133 132 133 134 135 135 137 139 138 134 132 130 130 127 125 124 123 121 120 120 121 119 116 113 110 109 107 104 99 92 87 84 82 82 83 84 87 89 91 92 96 105 117 127 131 129 123 118 113 107 103 98 94 89 86 86 86 85
164 160 155 151 150 149 148 146 143 140 138 137 137 138 139 140 140 141 141 141 138 136 134 131 128 127 127 126 124 120 117 116 113 110 108 107 106 105 102 98 93 89 86 86 86 87 88 90 93 94 96 100 111 126 135 136 131 124 118 112 106 100 93 87 80 76 78 82 86
162 160 157 155 153 152 150 147 144 143 143 143 142 142 143 143 143 143 142 141 139 138 137 134 131 131 131 131 127 120 114 111 109 108 106 105 103 102 100 99 97 94 90 89 89 90 91 94 97 100 103 109 118 128 134 132 128 122 116 110 103 94 86 78 71 67 69 76 86
161 160 159 158 157 156 154 150 148 148 148 148 147 146 147 147 145 143 141 140 140 140 140 138 136 136 135 132 128 121 115 110 107 106 104 103 102 101 100 100 99 97 94 91 90 91 93 97 101 105 109 114 119 125 127 125 121 115 109 102 93 82 71 63 58 56 59 67 81
Height
794 794 794 794 794 793 793 793 793 793 793 793 793 793 792 792 792 792 792 792 792 792 792 792 793 793 793 793 793 793 793 793 793 793 793 793 793 793 793 793 794 795 795 796 797 798 799 800 800 801 803 804 805 805 806 807 807 807 808 809 809 810 810 810 810 811 811 811 812
793 793 793 793 793 793 793 793 792 792 792 792 792 792 792 791 791 791 791 791 791 791 791 791 791 791 791 791 792 792 791 791 791 791 791 791 791 791 791 792 792 793 794 795 795 796 797 798 799 800 801 802 803 804 805 805 806 806 807 808 808 809 809 809 809 810 810 811 811
793 793 793 792 792 792 792 792 792 792 792 791 791 791 791 791 790 790 790 790 790 790 790 790 790 790 790 790 790 790 790 790 790 790 790 790 790 790 790 790 791 792 793 794 794 795 795 796 797 798 799 800 801 802 804 805 805 805 806 807 807 807 808 808 808 809 810 810 810
792 792 792 792 791 791 791 791 791 791 791 791 790 790 790 790 790 790 789 789 789 789 788 788 788 788 788 789 789 789 789 789 789 789 789 789 789 789 789 790 790 791 792 792 793 794 794 795 796 797 798 799 800 801 802 803 804 804 805 805 806 806 807 807 807 808 808 809 809
792 791 791 791 791 790 790 790 790 790 790 790 790 790 789 789 789 789 788 788 788 787 787 787 787 787 787 787 787 787 787 787 787 787 787 787 787 788 788 789 790 790 791 791 792 793 794 794 795 796 797 797 799 800 801 801 802 802 803 804 805 805 806 806 806 807 807 808 808
791 791 790 790 790 790 790 789 789 789 789 789 789 789 788 788 788 788 787 787 787 786 786 786 786 785 785 786 786 786 786 786 786 786 786 786 787 787 788 788 789 789 790 790 791 792 793 793 794 795 795 796 797 798 799 799 800 800 801 803 803 804 805 805 805 805 806 806 807
790 790 790 789 789 789 789 788 788 788 788 788 788 788 787 787 787 787 786 786 786 785 785 785 785 785 785 785 785 785 785 785 785 785 785 786 786 787 787 787 788 789 789 790 790 791 792 792 793 793 794 794 795 796 797 797 798 799 800 802 802 803 803 803 804 804 805 805 805
789 789 789 788 788 788 788 788 787 787 787 787 787 787 787 786 786 786 785 785 785 785 784 784 784 783 783 783 783 783 784 784 784 784 785 785 785 786 786 787 787 788 789 789 790 790 791 791 792 792 792 793 794 795 795 796 797 799 800 801 802 802 803 803 803 803 804 804 805
789 788 788 788 787 787 787 787 786 786 786 786 786 786 786 785 785 785 785 784 784 784 783 783 783 782 782 782 782 782 783 783 783 783 784 785 785 785 786 786 787 787 788 788 789 790 790 790 791 791 792 792 793 794 795 796 797 799 800 800 801 801 802 802 803 803 803 803 804
788 787 787 787 786 786 786 786 785 785 785 785 785 785 785 785 784 784 784 784 783 783 783 782 782 782 781 782 782 782 782 782 783 783 783 784 784 785 785 785 786 787 787 788 788 789 789 789 790 790 791 792 793 794 795 796 797 798 799 800 800 801 801 802 802 803 803 803 803
787 787 786 786 785 785 785 785 785 785 785 784 784 784 784 784 784 783 783 783 783 782 782 782 781 781 781 781 781 781 782 782 782 782 783 783 784 784 785 785 785 786 787 787 787 788 788 789 789 790 791 792 793 794 795 796 797 798 799 799 800 800 801 802 802 802 802 803 803
786 786 785 785 785 785 785 784 784 784 784 784 784 783 783 783 783 783 783 782 782 782 782 781 781 781 781 781 781 781 781 782 782 782 782 783 783 784 785 785 785 786 786 787 787 788 788 789 789 790 791 792 793 794 795 795 796 797 798 799 800 800 801 802 802 802 802 802 803
786 785 785 785 785 784 784 784 784 784 783 783 783 783 783 783 783 782 782 782 782 782 782 782 781 781 781 781 781 782 782 782 782 782 783 783 783 784 785 785 785 786 786 787 787 788 788 789 790 790 791 792 793 794 795 795 796 797 797 798 799 800 801 802 802 802 802 802 803
785 785 785 785 785 784 784 784 784 783 783 783 783 783 783 782 782 782 782 782 782 782 782 782 782 782 782 782 782 782 782 783 783 783 783 783 784 784 785 785 786 786 786 787 788 788 789 789 790 790 791 792 793 794 794 795 795 796 797 797 799 800 801 802 802 802 802 802 802
785 785 785 785 785 784 784 784 784 783 783 783 783 783 782 782 782 782 782 782 782 782 782 782 782 782 782 782 783 783 783 783 783 783 784 784 784 785 785 785 786 786 786 787 787 788 789 789 790 790 791 792 793 794 794 794 795 795 796 797 799 800 801 801 801 801 801 802 802
785 785 785 785 785 785 784 784 784 783 783 783 783 783 783 783 783 782 782 782 782 782 782 782 782 783 783 783 783 783 784 784 784 784 784 785 785 785 785 786 786 787 787 787 788 788 789 790 790 791 791 792 793 793 794 794 795 795 796 798 798 799 800 800 801 801 801 801 802
786 786 785 785 785 785 784 784 784 784 784 783 783 783 783 783 783 783 782 782 782 782 782 782 783 783 783 783 784 784 784 784 784 784 785 785 785 785 786 786 787 787 787 788 788 788 789 790 791 791 792 793 793 793 793 794 795 796 797 798 799 800 800 800 800 801 801 801 802
786 786 786 785 785 785 784 784 784 784 784 784 783 783 783 783 783 783 783 783 783 783 783 783 783 783 783 784 784 784 784 784 785 785 785 785 785 786 786 786 787 787 788 788 788 789 790 790 791 792 793 793 794 794 794 794 795 796 797 798 799 799 800 800 800 801 801 801 801
786 786 786 786 785 785 785 785 785 784 784 784 784 784 784 784 783 783 783 783 784 783 783 783 784 784 784 784 784 785 785 785 785 785 785 786 786 786 787 787 788 788 789 789 789 790 790 791 792 792 793 794 794 794 794 795 795 796 797 798 799 799 800 800 800 800 801 801 801
786 786 786 786 786 785 785 785 785 785 785 785 785 785 784 784 784 784 784 784 784 784 784 784 784 785 785 785 785 785 785 786 786 786 786 787 787 787 788 788 788 789 789 790 790 790 791 792 792 793 793 794 794 794 795 795 796 797 798 798 799 799 800 800 800 800 800 801 801
787 787 787 786 786 786 786 785 785 785 785 785 785 785 785 785 785 785 785 785 785 785 785 785 785 785 786 786 786 786 786 787 787 787 787 788 788 788 789 789 789 790 790 790 791 791 792 792 793 793 794 794 795 795 795 796 797 797 798 798 799 799 800 800 800 800 801 801 802
787 787 787 787 786 786 786 786 786 786 785 785 785 786 786 786 786 786 786 786 786 786 786 786 786 786 787 787 787 787 787 787 788 788 788 788 789 789 790 790 790 790 791 791 791 792 792 793 793 794 794 795 795 795 796 797 797 798 798 798 799 799 800 800 800 801 801 802 802
787 787 787 787 787 786 786 786 786 786 786 786 786 786 786 786 786 786 786 787 787 787 787 787 787 787 788 788 788 788 788 788 789 789 789 790 790 790 790 791 791 791 791 792 792 792 793 793 794 795 795 795 796 796 797 797 798 798 798 798 799 799 800 800 800 801 802 802 803
787 787 787 787 787 787 787 786 786 786 786 786 786 786 786 787 787 787 787 787 787 787 787 788 788 788 788 788 789 789 789 789 790 790 790 790 791 791 791 791 792 792 792 792 793 793 793 794 794 795 795 796 796 797 797 798 798 798 798 799 799 799 800 800 801 801 802 802 803
787 787 787 787 787 787 787 787 787 787 787 787 787 787 787 787 787 787 787 787 788 788 788 788 788 788 789 789 789 790 790 790 790 790 791 791 791 791 792 792 792 792 793 793 794 794 794 794 795 795 795 796 796 797 798 798 798 799 799 799 799 800 800 801 801 802 802 803 803
787 787 787 787 787 787 787 787 787 787 787 787 787 788 788 788 788 788 788 788 788 788 789 789 789 789 789 790 790 790 790 791 791 791 791 792 792 792 792 793 793 793 794 794 795 795 795 795 795 795 796 796 797 797 798 798 799 799 799 800 800 800 801 801 802 802 803 803 804
787 787 788 788 788 788 788 788 788 788 788 788 788 788 788 788 788 788 789 789 789 789 789 790 790 790 790 790 790 791 791 791 792 792 792 792 793 793 793 794 794 795 795 795 795 796 795 795 796 796 796 796 797 797 798 798 799 799 800 800 800 801 801 802 802 803 803 804 804
787 788 788 788 788 788 788 788 788 788 788 788 789 789 789 789 789 789 789 789 790 790 790 790 790 790 791 791 791 792 792 792 793 793 793 794 794 794 795 795 795 796 796 796 796 796 796 796 796 796 796 797 797 798 798 799 799 800 800 800 801 801 802 803 803 804 804 805 805
788 788 788 788 788 789 789 789 789 789 789 789 789 789 789 789 789 789 790 790 790 790 790 791 791 791 791 792 792 792 793 793 794 794 795 795 795 795 795 796 796 797 797 797 797 797 797 797 797 797 797 797 798 798 799 799 800 800 800 801 801 802 803 803 804 805 805 805 805
788 788 788 788 788 789 789 789 789 789 789 789 790 790 790 790 790 790 790 791 791 791 791 792 792 792 792 793 793 794 794 795 795 795 795 795 796 796 797 797 797 798 798 798 798 798 798 797 797 797 797 798 799 799 800 800 800 800 801 801 802 803 804 804 805 805 805 806 806
788 788 788 788 789 789 789 789 789 790 790 790 790 790 790 790 791 791 791 791 792 792 792 792 792 793 793 794 794 795 795 795 795 796 796 796 796 797 797 798 798 799 799 799 799 799 798 798 797 797 798 799 799 800 800 800 801 801 802 803 804 804 805 805 805 805 806 806 806
788 788 788 789 789 789 789 790 790 790 791 791 791 791 791 791 791 792 792 792 793 793 793 793 793 794 794 795 795 795 796 796 796 797 797 797 797 798 798 799 799 799 800 800 800 799 799 798 798 798 798 799 800 800 801 801 802 802 803 804 805 805 805 806 806 806 806 806 806
788 788 789 789 789 790 790 790 790 791 791 791 792 791 791 791 792 792 793 793 793 794 794 794 794 795 795 795 796 796 796 797 797 797 797 798 798 798 799 799 800 800 800 800 800 800 799 799 798 798 799 800 800 801 802 802 803 804 804 805 805 806 806 806 806 806 806 807 807
788 789 789 789 790 790 790 790 791 791 792 792 792 792 792 792 792 793 793 794 794 794 795 795 795 795 795 796 796 797 797 797 798 798 798 798 798 799 799 799 800 800 800 800 800 800 800 799 799 799 800 800 801 802 803 804 804 805 805 805 806 806 806 806 806 807 807 807 807
789 789 789 790 790 790 791 791 791 792 792 792 792 792 792 793 793 794 794 795 795 795 795 795 795 796 796 797 797 797 797 798 798 798 798 799 799 799 799 800 800 800 801 801 801 800 800 800 800 800 801 802 803 803 804 805 805 805 806 806 806 806 806 806 807 807 807 807 808
789 789 789 790 790 791 791 791 792 792 792 792 793 793 793 794 794 794 795 795 795 795 796 796 796 796 797 797 798 798 798 798 798 799 799 799 799 799 800 800 800 801 801 801 801 801 801 801 801 802 802 803 804 804 805 805 805 806 806 806 806 806 807 807 807 807 807 808 808
789 789 790 790 790 791 791 791 792 792 793 793 793 793 794 794 795 795 795 795 795 796 796 797 797 797 797 798 798 799 799 799 799 799 799 799 799 800 800 800 801 801 802 802 802 801 801 802 802 803 803 804 804 805 805 806 806 806 806 807 807 807 807 807 807 808 808 808 808
789 790 790 790 791 791 791 792 792 792 793 793 794 794 794 795 795 795 796 796 796 796 797 797 798 798 798 798 799 799 799 799 799 799 799 800 800 800 800 800 801 802 802 802 802 802 802 803 803 804 804 805 805 806 806 806 806 807 807 807 807 808 808 808 808 808 808 808 808
790 790 790 791 791 791 792 792 792 793 793 793 794 794 795 795 795 796 796 796 796 797 797 798 798 798 799 799 799 799 799 799 800 800 800 800 800 800 801 801 802 802 803 803 803 803 803 804 804 805 805 805 806 806 807 807 807 807 807 808 808 808 808 808 808 808 808 808 808
790 790 791 791 791 792 792 792 793 793 793 794 794 794 795 795 796 796 796 797 797 797 798 798 798 799 799 799 799 800 800 800 800 800 800 801 801 801 802 802 802 803 803 804 804 804 804 805 805 805 806 806 807 807 807 807 808 808 808 808 808 808 809 809 809 809 809 809 809
790 791 791 791 792 792 792 793 793 793 794 794 794 795 795 795 796 796 797 797 797 798 798 798 799 799 799 799 800 800 800 800 800 800 801 801 802 802 803 803 803 804 804 805 805 805 805 805 806 806 807 807 807 807 808 808 808 808 808 809 809 809 809 809 809 809 809 809 809